Temperature
16 16 16 15 15 15 15 15 15 15 15 15 15 15 15 15 15 15 15 15 15 15 15 15 15 15 15 15 15 15 15 15 15 15 15 15 15 15 15 15 15 15 15
16 15 15 15 15 15 15 15 15 15 15 15 15 15 15 15 15 15 15 15 15 15 15 15 15 15 15 15 15 15 15 15 15 15 15 15 15 15 15 15 15 15 15
15 15 15 15 15 15 15 15 15 15 15 15 15 15 15 14 15 14 14 14 14 14 15 14 14 14 14 14 14 14 14 14 14 14 14 14 15 14 14 14 15 15 15
15 15 15 15 15 15 15 15 15 15 15 14 14 14 14 14 14 14 14 14 14 14 14 14 14 14 14 14 14 14 14 14 14 14 14 14 14 14 14 14 14 14 14
15 15 15 15 15 15 15 15 15 14 14 14 14 14 14 14 14 14 14 14 14 14 14 14 14 14 14 14 14 14 14 14 14 14 14 14 14 14 14 14 14 14 14
15 15 15 15 15 14 14 14 14 14 14 14 14 14 14 14 14 14 14 14 14 14 13 13 13 14 14 14 14 14 14 13 14 13 14 14 14 14 14 14 14 14 14
15 15 15 15 15 14 14 14 14 14 14 14 14 14 14 14 14 14 14 14 14 13 13 13 13 13 13 13 14 14 13 13 13 13 13 13 13 13 13 13 13 13 13
15 15 15 15 14 14 14 14 14 14 14 14 14 14 15 14 13 14 13 13 13 13 13 13 13 13 13 13 13 13 13 13 13 13 13 13 13 13 13 13 13 13 13
15 15 15 14 14 14 14 14 14 14 14 14 14 14 15 15 14 14 13 13 13 13 13 13 13 13 13 13 13 13 13 13 13 13 13 13 13 13 13 13 13 13 13
15 15 14 14 14 14 14 14 14 14 13 13 13 14 14 14 14 14 14 13 13 13 13 13 13 13 13 12 13 13 13 13 13 13 13 12 12 13 13 13 13 13 13
14 14 14 14 14 14 14 14 14 13 13 13 13 13 13 13 14 14 14 13 13 13 13 13 12 12 12 12 12 13 13 13 13 12 12 12 12 12 12 12 13 12 13
14 14 14 14 14 14 14 14 13 13 13 13 13 13 13 13 13 13 14 13 13 13 13 12 12 12 12 12 12 12 13 12 12 12 12 12 12 12 12 12 12 12 12
14 14 14 14 14 14 13 13 13 13 13 13 13 13 13 13 13 13 13 13 13 13 12 12 12 12 12 12 12 12 12 12 12 12 12 12 12 12 12 12 12 12 12
14 14 14 14 14 13 13 13 13 13 13 13 12 12 12 12 12 12 12 12 13 13 13 13 12 12 12 12 12 12 12 12 12 12 12 12 12 12 12 12 12 12 12
14 14 14 13 13 13 13 13 13 13 12 12 12 12 12 12 12 12 12 12 12 13 13 13 12 12 12 12 12 12 12 12 12 12 12 12 12 12 12 12 12 12 12
14 13 13 13 13 13 13 12 12 12 12 12 12 12 12 12 12 12 11 11 11 12 12 12 12 12 12 11 12 11 11 11 11 12 12 12 12 11 11 12 12 12 11
14 13 13 13 13 13 13 12 12 12 12 12 12 11 11 11 11 11 11 11 11 11 11 12 12 11 11 11 11 11 11 11 11 11 11 11 11 11 11 11 11 11 11
13 13 13 13 12 12 12 12 12 12 12 12 11 11 11 11 11 11 11 11 11 11 11 11 11 11 11 11 11 11 11 11 11 11 11 11 11 11 11 11 11 11 11
13 13 13 12 12 12 12 12 12 12 11 11 11 11 11 10 10 10 10 10 10 10 10 11 11 11 10 10 10 10 10 11 11 11 11 11 11 11 11 11 11 11 11
13 13 13 12 12 12 12 12 12 11 11 11 11 10 10 10 10 10 10 10 10 10 10 10 10 10 10 10 10 10 10 10 10 10 10 10 10 10 10 10 10 10 10
13 12 12 12 12 12 11 11 11 11 11 10 10 10 10 10 10 10 10 10 9 9 10 10 10 10 10 10 10 10 10 10 10 10 10 10 10 10 10 10 10 10 10
12 12 12 12 11 11 11 11 11 10 10 10 10 10 10 9 9 9 9 9 9 9 9 9 9 9 9 9 9 9 9 9 9 9 9 9 10 9 10 10 10 10 10
12 12 12 11 11 11 11 11 11 10 10 10 9 9 9 9 9 9 9 9 9 9 9 8 9 9 9 9 9 9 9 9 9 9 9 9 9 9 9 9 10 10 10
12 12 12 11 11 11 11 11 11 10 9 9 9 9 9 9 9 9 8 8 8 8 9 8 8 9 9 9 9 9 9 9 9 9 9 9 9 9 9 9 9 10 9
11 11 11 11 11 10 11 10 10 9 9 9 9 9 9 8 9 9 8 8 8 8 8 9 9 9 9 9 9 9 9 8 8 9 9 8 8 8 9 9 9 9 9
11 11 11 10 10 10 10 10 9 9 9 9 9 8 9 8 8 8 8 8 8 8 8 8 8 8 8 8 8 8 8 8 8 8 8 8 8 8 8 8 9 9 9
Wind_Speed
4 4 3 3 4 4 4 4 4 5 5 6 5 5 6 5 5 6 7 11 10 9 9 9 9 9 8 8 8 8 8 8 7 7 6 6 5 5 4 3 3 3 2
3 3 3 3 3 3 3 3 4 4 4 5 5 5 5 5 5 5 6 8 10 9 8 8 8 8 7 7 7 8 8 8 8 7 7 7 6 6 5 4 4 3 3
3 3 3 3 3 3 3 3 4 3 4 4 4 5 5 4 4 5 5 5 7 9 8 8 8 7 7 7 7 7 7 7 7 7 6 6 6 6 5 5 5 4 4
4 3 2 3 3 2 2 2 2 2 3 3 4 4 4 4 4 4 4 4 4 5 7 8 7 7 6 7 7 7 7 6 6 6 6 6 6 6 5 5 4 4 4
3 3 2 2 3 2 2 2 2 2 3 3 3 3 3 3 3 3 4 4 4 4 4 7 7 7 6 7 7 7 6 6 6 6 5 5 5 5 4 4 4 4 3
3 3 2 2 2 2 2 2 3 2 2 2 3 3 3 3 3 3 3 3 3 4 3 3 4 5 6 6 5 5 5 5 5 5 5 5 4 4 3 3 3 4 4
2 2 1 2 2 2 2 2 2 3 2 2 1 2 2 2 3 3 2 2 3 3 3 2 2 2 4 5 4 4 4 4 4 4 4 4 4 3 3 2 2 2 3
1 1 1 1 2 1 2 2 2 1 1 0 1 1 1 1 1 2 1 2 2 2 3 3 3 2 2 2 5 4 3 3 2 3 3 3 3 3 3 2 1 1 2
1 1 1 1 1 1 1 1 1 1 0 0 1 2 1 0 1 1 1 1 1 2 2 2 2 2 2 2 2 4 3 2 2 1 2 2 2 2 2 2 1 1 2
2 1 1 1 1 1 1 1 0 1 1 1 0 1 2 1 1 1 1 0 1 1 1 1 1 1 1 1 2 3 3 2 1 1 1 1 2 2 2 1 2 2 2
2 2 1 1 1 1 1 1 1 1 1 1 1 0 1 1 2 2 1 1 1 1 1 1 1 1 1 1 1 3 2 1 2 2 2 2 2 2 2 2 2 2 2
2 1 1 2 2 1 1 1 1 1 1 1 1 1 1 1 2 2 2 2 2 1 1 1 1 1 0 0 1 2 1 1 1 2 2 2 2 3 3 3 2 3 3
2 2 2 2 1 1 1 1 2 2 2 1 2 1 2 2 2 2 2 2 2 2 2 2 1 1 1 1 1 1 2 1 1 2 2 3 3 3 3 3 4 4 4
2 2 2 2 2 2 2 2 2 2 2 2 2 2 2 2 2 2 2 2 3 3 3 3 1 2 1 2 0 3 2 3 2 3 3 4 3 3 4 5 5 5 6
2 3 3 2 2 2 2 2 2 2 2 2 2 2 2 2 2 2 2 3 3 4 4 2 2 2 2 2 1 3 2 2 3 3 4 4 4 4 4 5 5 5 6
3 3 3 3 3 2 2 2 2 2 3 2 2 3 2 2 2 2 3 3 4 4 4 3 3 3 2 3 3 4 3 3 5 5 5 5 5 5 5 6 6 6 6
4 3 3 3 3 2 2 2 3 3 3 3 3 3 3 2 2 3 3 3 3 4 5 5 3 3 3 4 3 4 4 4 4 6 6 6 6 6 6 7 6 7 7
3 3 3 3 2 2 2 3 3 3 3 3 3 3 2 2 3 3 3 3 3 4 5 6 5 4 5 4 4 5 4 4 5 5 7 7 7 7 7 8 7 8 8
4 3 3 3 2 2 2 2 3 3 3 3 2 3 3 3 3 3 3 3 3 4 4 5 5 4 4 4 4 5 5 4 5 5 7 8 9 9 9 9 8 8 8
4 3 3 2 2 2 2 2 2 2 2 2 2 2 3 3 3 4 3 3 4 4 5 5 4 4 4 4 4 4 4 4 5 5 5 6 7 9 10 10 10 9 8
4 3 3 2 2 2 1 2 2 2 3 3 3 3 2 2 3 3 3 3 4 4 4 4 4 4 4 3 4 4 5 5 5 4 4 5 5 6 7 9 10 9 9
3 3 3 2 2 1 1 1 2 3 3 3 3 3 2 3 2 3 3 4 5 5 4 4 4 5 6 5 4 5 5 5 4 3 5 6 5 6 6 6 6 7 8
3 3 2 2 2 2 2 1 2 3 3 3 3 3 2 2 3 4 4 6 6 5 6 6 6 6 6 6 5 6 6 6 6 4 5 6 5 6 6 6 5 7 8
3 3 3 2 2 2 3 1 2 3 3 3 3 3 3 3 3 4 4 4 4 4 5 6 7 6 6 6 6 7 7 6 6 4 3 5 5 6 5 6 5 7 7
4 3 2 2 2 2 3 1 2 2 2 3 3 3 3 3 1 4 5 5 5 4 4 5 6 6 6 6 6 5 5 5 5 4 3 4 5 6 6 5 4 6 8
4 3 2 2 2 1 2 1 2 1 2 2 2 2 1 3 3 3 5 5 5 5 5 4 5 6 6 5 5 6 5 6 6 5 2 4 5 4 5 4 4 5 6
Wind_Direction
70 76 76 76 68 69 71 64 63 64 65 66 69 71 71 69 69 75 81 80 75 71 74 77 79 79 81 78 78 78 77 77 79 76 72 72 73 78 74 70 68 74 73
77 72 74 76 75 70 67 69 69 66 62 61 60 66 68 71 74 82 86 92 86 76 75 79 81 80 83 85 85 81 78 79 81 76 68 65 67 73 66 65 63 65 62
82 81 75 77 78 76 79 73 75 70 70 70 66 60 60 59 70 77 82 86 93 92 84 79 79 78 77 82 84 80 78 78 76 70 66 64 63 60 59 59 61 60 54
78 75 74 79 81 79 78 74 70 77 74 66 62 62 66 66 67 71 80 83 80 86 92 87 80 76 74 77 80 81 81 77 71 67 65 65 62 57 54 51 53 56 50
91 89 76 78 81 77 68 69 70 72 80 75 71 67 62 63 68 71 77 77 76 77 89 100 97 82 79 77 77 79 79 74 68 64 63 62 58 52 52 49 44 42 42
96 97 105 92 80 83 77 81 84 84 80 85 76 67 59 64 66 64 70 82 77 73 77 86 106 103 96 82 75 74 74 69 64 61 64 64 56 47 44 42 39 35 35
110 104 112 91 78 79 78 85 95 103 93 93 101 89 81 72 66 70 67 75 75 68 70 70 73 82 111 116 94 75 72 66 61 62 57 52 50 50 39 31 32 37 37
130 123 140 126 123 114 107 96 107 94 82 308 287 245 173 140 100 62 64 65 56 66 57 54 56 59 58 89 94 92 68 57 56 55 51 43 39 39 35 27 13 27 23
152 155 147 168 164 171 147 162 162 156 159 338 334 308 292 316 55 121 49 48 51 47 48 42 45 48 56 69 99 103 80 53 38 29 31 26 18 15 13 9 358 7 354
177 183 177 202 199 198 201 203 234 259 257 243 16 335 330 337 265 227 203 46 36 11 3 22 24 36 38 44 74 67 78 50 346 332 342 347 1 346 344 335 345 337 323
185 189 195 206 212 214 236 232 232 255 259 275 283 276 330 292 270 269 267 278 267 311 333 327 342 8 23 31 46 61 66 21 337 314 310 315 332 338 327 314 323 333 331
189 201 216 216 213 219 226 222 222 233 260 269 276 266 260 276 279 265 262 267 277 280 283 305 298 295 298 315 64 60 62 313 281 288 290 295 300 314 322 319 305 311 311
200 204 214 220 223 230 231 220 220 225 238 247 259 280 284 282 279 271 266 277 283 273 258 244 245 251 247 236 197 190 202 213 263 275 279 285 288 299 301 309 307 301 300
214 207 208 225 223 226 220 213 232 231 238 237 246 249 256 273 273 259 259 268 275 268 254 253 230 233 248 247 231 223 208 184 232 265 273 277 274 283 291 293 296 295 293
206 204 210 220 214 216 219 215 233 232 241 249 244 242 247 250 252 253 253 254 269 274 271 266 255 249 253 255 226 243 248 172 215 249 265 271 262 266 280 284 286 285 285
200 200 210 215 207 207 213 224 240 249 244 237 240 246 248 249 254 252 250 255 264 271 277 280 273 274 279 264 243 258 257 198 218 234 254 261 254 255 263 269 274 281 282
197 198 209 218 219 218 219 217 235 236 241 236 234 243 247 259 255 251 251 254 255 261 267 276 278 277 270 268 260 260 256 250 233 211 234 251 251 251 257 266 269 275 276
198 200 201 212 218 228 237 230 231 235 239 244 249 255 260 257 259 260 260 258 258 260 266 273 277 280 280 280 275 269 264 259 262 215 221 243 251 253 257 261 265 269 267
191 196 197 205 210 222 232 231 228 227 229 238 247 252 261 261 259 258 261 264 265 264 261 262 273 282 277 280 277 270 269 265 263 240 222 235 245 250 254 257 261 267 263
189 195 198 200 202 211 220 219 220 226 230 237 247 255 265 265 267 265 261 268 271 269 262 264 270 272 272 278 273 269 270 266 266 258 249 251 247 245 248 253 256 258 260
189 188 191 195 200 215 234 247 227 229 233 240 246 246 256 291 324 305 292 284 277 266 261 264 268 275 274 279 282 276 276 277 270 262 270 263 253 254 253 247 246 252 253
182 178 191 192 197 202 78 332 281 234 240 241 247 250 243 236 226 230 265 288 291 275 271 267 268 269 276 273 282 281 282 281 278 263 276 274 263 264 262 262 251 246 250
172 175 184 187 193 162 128 154 287 263 248 253 256 253 253 261 259 255 234 228 240 252 267 272 268 274 279 282 280 277 279 279 282 288 279 275 269 270 273 269 236 239 250
168 176 176 179 175 146 130 162 238 243 245 253 261 264 256 257 271 280 268 260 260 256 253 259 269 276 282 289 281 276 279 281 283 279 268 277 280 280 282 271 225 226 240
168 171 164 169 177 156 136 169 243 232 243 255 266 275 277 270 319 288 269 266 267 268 246 253 273 280 294 298 294 275 276 273 276 272 260 278 288 290 282 272 252 226 234
168 162 159 176 185 173 128 156 266 239 254 262 268 275 324 309 323 295 274 272 271 276 277 260 249 249 259 256 248 261 268 272 277 271 255 268 281 289 280 272 277 263 249
Height
1538 1538 1538 1537 1537 1537 1536 1536 1536 1536 1536 1535 1535 1535 1535 1535 1535 1535 1535 1534 1534 1534 1534 1533 1533 1533 1533 1533 1533 1533 1533 1533 1533 1533 1533 1533 1533 1533 1532 1532 1532 1532 1533
1539 1539 1539 1538 1538 1538 1538 1537 1537 1537 1537 1536 1536 1536 1536 1536 1536 1536 1536 1535 1535 1535 1535 1535 1534 1534 1533 1533 1533 1533 1533 1533 1533 1533 1533 1533 1533 1533 1532 1532 1532 1532 1532
1540 1540 1540 1539 1539 1539 1539 1538 1538 1538 1537 1537 1537 1537 1536 1536 1537 1537 1537 1537 1536 1536 1535 1535 1535 1534 1534 1533 1533 1533 1533 1533 1533 1533 1532 1532 1532 1532 1532 1532 1531 1531 1531
1541 1540 1540 1540 1540 1539 1539 1539 1539 1538 1538 1538 1538 1537 1537 1536 1537 1537 1537 1537 1537 1537 1536 1536 1535 1535 1534 1534 1534 1533 1533 1533 1533 1533 1532 1532 1532 1532 1532 1531 1531 1531 1531
1541 1541 1540 1540 1540 1540 1540 1539 1539 1539 1539 1538 1538 1538 1538 1537 1537 1537 1537 1537 1537 1537 1537 1536 1536 1535 1535 1534 1534 1533 1533 1533 1533 1532 1532 1531 1531 1531 1531 1531 1531 1530 1530
1541 1541 1541 1541 1541 1540 1540 1540 1539 1539 1539 1539 1539 1538 1538 1537 1537 1537 1537 1537 1537 1537 1537 1537 1536 1535 1535 1534 1534 1534 1533 1533 1532 1532 1532 1531 1531 1531 1530 1530 1530 1530 1529
1541 1541 1541 1541 1540 1541 1540 1540 1540 1540 1539 1539 1540 1539 1539 1538 1538 1537 1537 1537 1537 1536 1536 1536 1536 1535 1535 1534 1533 1533 1533 1533 1532 1532 1531 1531 1530 1530 1530 1529 1529 1529 1528
1541 1541 1541 1541 1540 1540 1540 1540 1539 1540 1539 1539 1540 1540 1540 1540 1539 1538 1538 1537 1537 1536 1536 1536 1536 1535 1535 1534 1533 1533 1532 1532 1532 1531 1531 1530 1530 1529 1529 1528 1528 1528 1527
1540 1540 1541 1540 1540 1540 1540 1540 1540 1539 1539 1539 1539 1540 1539 1538 1539 1539 1538 1537 1537 1536 1536 1535 1535 1534 1534 1533 1533 1532 1531 1531 1531 1530 1530 1529 1529 1528 1528 1527 1527 1527 1526
1539 1539 1539 1539 1540 1540 1539 1539 1539 1539 1538 1538 1538 1538 1539 1538 1538 1538 1538 1538 1537 1536 1535 1535 1534 1534 1533 1532 1531 1531 1530 1530 1529 1529 1529 1528 1527 1527 1526 1526 1526 1525 1525
1538 1538 1538 1538 1538 1538 1538 1538 1537 1537 1537 1537 1537 1537 1537 1537 1537 1537 1537 1537 1536 1536 1535 1534 1534 1533 1532 1531 1530 1530 1529 1529 1528 1527 1527 1527 1526 1525 1525 1524 1524 1524 1523
1537 1537 1537 1537 1537 1537 1537 1536 1536 1536 1536 1536 1536 1536 1536 1536 1536 1536 1536 1535 1535 1535 1534 1533 1532 1532 1531 1530 1529 1528 1528 1527 1527 1526 1525 1525 1525 1524 1523 1523 1522 1522 1521
1535 1535 1535 1535 1535 1535 1535 1535 1535 1534 1534 1534 1534 1534 1534 1534 1534 1535 1535 1534 1534 1533 1532 1532 1531 1530 1529 1529 1527 1527 1526 1526 1525 1524 1524 1523 1523 1522 1522 1521 1520 1520 1519
1534 1534 1534 1534 1534 1534 1533 1533 1533 1533 1533 1533 1532 1532 1532 1532 1532 1532 1533 1533 1532 1532 1531 1531 1530 1529 1528 1527 1526 1525 1524 1524 1523 1522 1522 1521 1521 1520 1519 1519 1518 1517 1517
1532 1532 1532 1532 1532 1532 1532 1532 1531 1531 1531 1531 1530 1530 1530 1530 1530 1530 1530 1531 1532 1530 1529 1529 1528 1527 1526 1525 1524 1523 1523 1522 1521 1520 1520 1519 1518 1517 1517 1516 1515 1515 1514
1530 1530 1530 1530 1530 1530 1530 1530 1530 1529 1529 1528 1528 1528 1528 1528 1528 1528 1527 1528 1528 1528 1528 1527 1526 1525 1524 1523 1522 1521 1521 1519 1519 1518 1517 1516 1516 1515 1514 1513 1512 1512 1511
1527 1528 1528 1528 1528 1528 1528 1528 1527 1527 1527 1527 1527 1526 1526 1526 1525 1525 1525 1525 1525 1525 1525 1524 1524 1523 1522 1521 1520 1519 1518 1517 1516 1515 1514 1514 1513 1512 1511 1510 1509 1508 1507
1525 1525 1526 1526 1526 1526 1526 1526 1525 1525 1525 1524 1524 1524 1524 1523 1523 1523 1523 1523 1522 1522 1522 1521 1521 1520 1519 1518 1517 1516 1516 1515 1514 1512 1511 1511 1510 1509 1508 1507 1506 1504 1503
1522 1523 1523 1523 1524 1523 1523 1523 1523 1522 1522 1522 1522 1522 1521 1521 1521 1520 1520 1520 1520 1519 1519 1519 1518 1517 1516 1515 1514 1513 1513 1512 1511 1509 1508 1507 1506 1505 1504 1503 1502 1501 1500
1520 1520 1521 1521 1521 1521 1521 1521 1520 1520 1520 1519 1519 1519 1519 1518 1518 1518 1517 1517 1517 1516 1516 1516 1515 1514 1513 1512 1512 1511 1510 1509 1507 1507 1505 1504 1503 1501 1500 1499 1498 1497 1496
1517 1518 1518 1518 1518 1519 1518 1518 1518 1517 1517 1517 1517 1516 1516 1515 1515 1514 1514 1514 1513 1513 1513 1512 1512 1511 1510 1509 1509 1508 1507 1505 1504 1503 1502 1501 1500 1498 1497 1495 1495 1494 1493
1514 1515 1515 1515 1515 1515 1515 1515 1515 1515 1515 1515 1514 1514 1513 1512 1512 1511 1511 1510 1510 1510 1510 1509 1509 1508 1508 1507 1506 1505 1504 1503 1501 1500 1499 1497 1496 1495 1494 1493 1491 1491 1489
1511 1512 1512 1512 1512 1512 1512 1512 1512 1512 1512 1512 1512 1511 1511 1510 1509 1509 1508 1507 1507 1506 1506 1506 1506 1505 1504 1503 1502 1501 1500 1499 1498 1497 1495 1494 1493 1491 1491 1489 1488 1487 1486
1508 1509 1509 1509 1510 1509 1509 1509 1509 1509 1509 1509 1509 1508 1508 1507 1506 1506 1505 1505 1504 1504 1503 1503 1502 1501 1501 1500 1499 1498 1497 1496 1495 1494 1492 1491 1490 1488 1487 1485 1484 1483 1482
1506 1506 1507 1507 1507 1507 1506 1506 1507 1507 1506 1506 1506 1505 1505 1504 1503 1502 1502 1502 1501 1500 1499 1498 1498 1497 1497 1496 1495 1495 1494 1493 1491 1490 1489 1488 1487 1485 1483 1482 1480 1479 1478
1503 1503 1504 1504 1504 1504 1504 1504 1504 1504 1504 1503 1503 1502 1501 1501 1500 1499 1499 1499 1498 1497 1496 1496 1495 1494 1493 1493 1492 1491 1490 1489 1488 1487 1486 1484 1483 1482 1480 1479 1477 1476 1475